TimePDT,TemperatureF,Dew PointF,Humidity,Sea Level PressureIn,VisibilityMPH,Wind Direction,Wind SpeedMPH,Gust SpeedMPH,PrecipitationIn,Events,Conditions,WindDirDegrees,DateUTC
12:15 AM,62.6,53.6,72,29.97,10.0,East,6.9,-,N/A,,Clear,100,2011-10-19 07:15:00
12:35 AM,62.6,51.8,68,29.96,10.0,East,9.2,-,N/A,,Clear,100,2011-10-19 07:35:00
12:55 AM,62.6,51.8,68,29.96,10.0,East,12.7,-,N/A,,Clear,100,2011-10-19 07:55:00
1:15 AM,64.4,51.8,64,29.96,10.0,SSE,4.6,-,N/A,,Clear,160,2011-10-19 08:15:00
1:35 AM,62.6,51.8,68,29.97,10.0,South,8.1,-,N/A,,Clear,190,2011-10-19 08:35:00
1:55 AM,60.8,53.6,77,29.97,10.0,SSW,4.6,-,N/A,,Clear,210,2011-10-19 08:55:00
2:15 AM,57.2,55.4,94,29.98,9.0,SSW,6.9,-,N/A,,Partly Cloudy,200,2011-10-19 09:15:00
2:35 AM,55.4,55.4,100,29.98,5.0,SE,4.6,-,N/A,,Mostly Cloudy,140,2011-10-19 09:35:00
2:55 AM,55.4,55.4,100,29.98,6.0,SE,6.9,-,N/A,,Clear,130,2011-10-19 09:55:00
3:15 AM,55.4,55.4,100,29.98,7.0,SE,8.1,-,N/A,,Clear,130,2011-10-19 10:15:00
3:35 AM,55.4,55.4,100,29.98,10.0,ESE,5.8,-,N/A,,Clear,110,2011-10-19 10:35:00
3:55 AM,55.4,55.4,100,29.97,10.0,ESE,10.4,-,N/A,,Clear,110,2011-10-19 10:55:00
4:35 AM,57.2,53.6,88,29.97,10.0,ESE,10.4,-,N/A,,Clear,120,2011-10-19 11:35:00
4:55 AM,57.2,53.6,88,29.97,10.0,ESE,9.2,-,N/A,,Clear,110,2011-10-19 11:55:00
5:15 AM,57.2,53.6,88,29.97,10.0,East,6.9,-,N/A,,Clear,100,2011-10-19 12:15:00
5:35 AM,59.0,51.8,77,29.97,10.0,Calm,Calm,-,N/A,,Clear,0,2011-10-19 12:35:00
5:55 AM,57.2,51.8,82,29.98,10.0,East,3.5,-,N/A,,Clear,100,2011-10-19 12:55:00
6:15 AM,57.2,51.8,82,29.98,10.0,SSE,6.9,-,N/A,,Clear,150,2011-10-19 13:15:00
6:35 AM,55.4,50.0,82,29.98,10.0,SSE,5.8,-,N/A,,Clear,160,2011-10-19 13:35:00
6:55 AM,57.2,50.0,77,29.97,10.0,ESE,10.4,-,N/A,,Clear,120,2011-10-19 13:55:00
7:15 AM,55.4,50.0,82,29.98,10.0,SSE,8.1,-,N/A,,Clear,160,2011-10-19 14:15:00
7:35 AM,55.4,50.0,82,29.99,10.0,SSE,6.9,-,N/A,,Clear,160,2011-10-19 14:35:00
7:55 AM,53.6,51.8,94,30.00,9.0,SSE,5.8,-,N/A,,Clear,160,2011-10-19 14:55:00
8:15 AM,53.6,53.6,100,30.00,0.2,SSE,6.9,-,N/A,,Overcast,160,2011-10-19 15:15:00
8:35 AM,53.6,53.6,100,30.01,0.2,SSE,6.9,-,N/A,,Overcast,150,2011-10-19 15:35:00
8:55 AM,53.6,53.6,100,30.01,0.2,South,5.8,-,N/A,,Overcast,170,2011-10-19 15:55:00
9:15 AM,55.4,55.4,100,30.01,1.2,SE,6.9,-,N/A,,Overcast,130,2011-10-19 16:15:00
9:35 AM,55.4,55.4,100,30.01,4.0,South,5.8,-,N/A,,Overcast,180,2011-10-19 16:35:00
9:55 AM,55.4,55.4,100,30.02,5.0,South,4.6,-,N/A,,Overcast,180,2011-10-19 16:55:00
10:15 AM,57.2,53.6,88,30.02,7.0,Calm,Calm,-,N/A,,Overcast,0,2011-10-19 17:15:00
10:35 AM,57.2,55.4,94,30.03,8.0,Calm,Calm,-,N/A,,Mostly Cloudy,0,2011-10-19 17:35:00
10:55 AM,60.8,55.4,82,30.02,10.0,Calm,Calm,-,N/A,,Clear,0,2011-10-19 17:55:00
11:15 AM,62.6,53.6,72,30.02,10.0,Calm,Calm,-,N/A,,Clear,0,2011-10-19 18:15:00
11:35 AM,64.4,55.4,73,30.02,10.0,Calm,Calm,-,N/A,,Clear,0,2011-10-19 18:35:00
11:55 AM,66.2,55.4,68,30.02,10.0,NW,3.5,-,N/A,,Clear,310,2011-10-19 18:55:00
12:15 PM,66.2,55.4,68,30.02,10.0,NW,4.6,-,N/A,,Clear,310,2011-10-19 19:15:00
12:35 PM,68.0,57.2,68,30.03,10.0,West,5.8,-,N/A,,Clear,280,2011-10-19 19:35:00
12:55 PM,66.2,57.2,73,30.02,10.0,West,6.9,-,N/A,,Clear,260,2011-10-19 19:55:00
1:15 PM,68.0,55.4,64,30.01,10.0,WNW,6.9,-,N/A,,Clear,300,2011-10-19 20:15:00
1:35 PM,69.8,55.4,60,30.01,10.0,West,5.8,-,N/A,,Clear,270,2011-10-19 20:35:00
1:55 PM,69.8,57.2,64,30.00,10.0,West,5.8,-,N/A,,Clear,280,2011-10-19 20:55:00
2:15 PM,69.8,57.2,64,30.00,10.0,WNW,4.6,-,N/A,,Clear,290,2011-10-19 21:15:00
2:35 PM,71.6,55.4,57,30.00,10.0,WNW,8.1,-,N/A,,Clear,300,2011-10-19 21:35:00
2:55 PM,71.6,55.4,57,29.99,10.0,WNW,4.6,-,N/A,,Clear,300,2011-10-19 21:55:00
3:15 PM,71.6,55.4,57,29.99,10.0,WNW,5.8,-,N/A,,Clear,300,2011-10-19 22:15:00
3:35 PM,71.6,55.4,57,29.99,10.0,WNW,5.8,-,N/A,,Clear,300,2011-10-19 22:35:00
3:55 PM,71.6,55.4,57,29.98,10.0,West,5.8,-,N/A,,Clear,280,2011-10-19 22:55:00
4:15 PM,73.4,55.4,53,29.98,10.0,WNW,5.8,-,N/A,,Clear,290,2011-10-19 23:15:00
4:35 PM,73.4,55.4,53,29.98,10.0,WNW,4.6,-,N/A,,Clear,290,2011-10-19 23:35:00
4:55 PM,71.6,55.4,57,29.98,10.0,West,3.5,-,N/A,,Clear,280,2011-10-19 23:55:00
5:15 PM,71.6,55.4,57,29.97,10.0,WNW,5.8,-,N/A,,Clear,300,2011-10-20 00:15:00
5:35 PM,69.8,55.4,60,29.97,10.0,WNW,4.6,-,N/A,,Clear,290,2011-10-20 00:35:00
5:55 PM,69.8,55.4,60,29.97,10.0,WNW,4.6,-,N/A,,Clear,290,2011-10-20 00:55:00
6:15 PM,68.0,55.4,64,29.97,10.0,Calm,Calm,-,N/A,,Clear,0,2011-10-20 01:15:00
6:35 PM,66.2,55.4,68,29.97,10.0,Calm,Calm,-,N/A,,Clear,0,2011-10-20 01:35:00
6:55 PM,64.4,55.4,73,29.97,10.0,Calm,Calm,-,N/A,,Clear,0,2011-10-20 01:55:00
7:15 PM,64.4,55.4,73,29.97,10.0,Calm,Calm,-,N/A,,Clear,0,2011-10-20 02:15:00
7:55 PM,59.0,55.4,88,29.97,10.0,Calm,Calm,-,N/A,,Clear,0,2011-10-20 02:55:00
8:15 PM,57.2,53.6,88,29.97,10.0,Calm,Calm,-,N/A,,Clear,0,2011-10-20 03:15:00
8:35 PM,57.2,53.6,88,29.97,10.0,Calm,Calm,-,N/A,,Clear,0,2011-10-20 03:35:00
8:55 PM,57.2,53.6,88,29.97,10.0,Calm,Calm,-,N/A,,Clear,0,2011-10-20 03:55:00
9:15 PM,57.2,53.6,88,29.97,10.0,Calm,Calm,-,N/A,,Clear,0,2011-10-20 04:15:00
9:35 PM,55.4,53.6,94,29.98,10.0,Calm,Calm,-,N/A,,Clear,0,2011-10-20 04:35:00
9:55 PM,57.2,53.6,88,29.98,10.0,Calm,Calm,-,N/A,,Clear,0,2011-10-20 04:55:00
10:15 PM,57.2,53.6,88,29.98,10.0,Calm,Calm,-,N/A,,Clear,0,2011-10-20 05:15:00
10:35 PM,55.4,53.6,94,29.98,10.0,Calm,Calm,-,N/A,,Clear,0,2011-10-20 05:35:00
10:55 PM,57.2,55.4,94,29.98,10.0,Calm,Calm,-,N/A,,Clear,0,2011-10-20 05:55:00
11:15 PM,57.2,55.4,94,29.98,10.0,Calm,Calm,-,N/A,,Clear,0,2011-10-20 06:15:00
11:35 PM,57.2,55.4,94,29.98,10.0,Calm,Calm,-,N/A,,Clear,0,2011-10-20 06:35:00
11:55 PM,55.4,53.6,94,29.98,10.0,Calm,Calm,-,N/A,,Clear,0,2011-10-20 06:55:00